Time,TemperatureF,DewpointF,PressureIn,WindDirection,WindDirectionDegrees,WindSpeedMPH,WindSpeedGustMPH,Humidity,HourlyPrecipIn,Conditions,Clouds,dailyrainin,SolarRadiationWatts/m^2,SoftwareType,DateUTC
2013-01-02 00:00:00,11.7,6.2,30.24,WNW,289,3.5,3.5,78,0.00,CLR,,0.00,0.0,WeatherDisplay:10.37,2013-01-02 05:00:00,
2013-01-02 00:01:00,11.7,6.2,30.24,WNW,286,4.6,4.6,78,0.00,CLR,,0.00,0.0,WeatherDisplay:10.37,2013-01-02 05:01:00,
2013-01-02 00:03:00,11.7,6.2,30.24,NW,314,4.0,4.0,78,0.00,CLR,,0.00,0.0,WeatherDisplay:10.37,2013-01-02 05:03:00,
2013-01-02 00:08:00,11.7,6.2,30.24,NW,307,5.8,5.8,78,0.00,CLR,,0.00,0.0,WeatherDisplay:10.37,2013-01-02 05:08:00,
2013-01-02 00:13:00,11.6,6.1,30.24,WNW,294,4.6,4.6,78,0.00,CLR,,0.00,0.0,WeatherDisplay:10.37,2013-01-02 05:13:00,
2013-01-02 00:18:00,11.6,6.1,30.24,NW,313,6.9,6.9,78,0.00,CLR,,0.00,0.0,WeatherDisplay:10.37,2013-01-02 05:18:00,
2013-01-02 00:23:00,11.6,6.1,30.24,WNW,296,5.8,5.8,78,0.00,CLR,,0.00,0.0,WeatherDisplay:10.37,2013-01-02 05:23:00,
2013-01-02 00:28:00,11.6,6.1,30.24,NW,311,5.8,5.8,78,0.00,CLR,,0.00,0.0,WeatherDisplay:10.37,2013-01-02 05:28:00,
2013-01-02 00:33:00,11.6,5.8,30.24,WNW,300,5.8,5.8,77,0.00,CLR,,0.00,0.0,WeatherDisplay:10.37,2013-01-02 05:33:00,
2013-01-02 00:38:00,11.6,5.8,30.24,NW,309,3.5,3.5,77,0.00,CLR,,0.00,0.0,WeatherDisplay:10.37,2013-01-02 05:38:00,
2013-01-02 00:43:00,11.6,5.8,30.24,WNW,288,3.5,3.5,77,0.00,CLR,,0.00,0.0,WeatherDisplay:10.37,2013-01-02 05:43:00,
2013-01-02 00:48:00,11.6,6.1,30.24,WNW,298,2.3,2.3,78,0.00,CLR,,0.00,0.0,WeatherDisplay:10.37,2013-01-02 05:48:00,
2013-01-02 00:53:00,11.4,5.9,30.24,WNW,298,1.1,1.1,78,0.00,CLR,,0.00,0.0,WeatherDisplay:10.37,2013-01-02 05:53:00,
2013-01-02 00:58:00,11.5,6.5,30.24,WNW,286,3.5,3.5,80,0.00,CLR,,0.00,0.0,WeatherDisplay:10.37,2013-01-02 05:58:00,
2013-01-02 01:03:00,11.7,6.4,30.24,WNW,300,6.9,6.9,79,0.00,CLR,,0.00,0.0,WeatherDisplay:10.37,2013-01-02 06:03:00,
2013-01-02 01:08:00,11.8,6.3,30.24,WNW,293,3.5,3.6,78,0.00,CLR,,0.00,0.0,WeatherDisplay:10.37,2013-01-02 06:08:00,
2013-01-02 01:13:00,11.7,6.2,30.25,WNW,303,3.5,3.5,78,0.00,CLR,,0.00,0.0,WeatherDisplay:10.37,2013-01-02 06:13:00,
2013-01-02 01:18:00,11.7,6.2,30.25,WNW,293,3.5,3.5,78,0.00,CLR,,0.00,0.0,WeatherDisplay:10.37,2013-01-02 06:18:00,
2013-01-02 01:23:00,11.8,6.3,30.25,NW,306,3.0,3.0,78,0.00,CLR,,0.00,0.0,WeatherDisplay:10.37,2013-01-02 06:23:00,
2013-01-02 01:28:00,11.7,6.2,30.24,NW,317,4.6,4.6,78,0.00,CLR,,0.00,0.0,WeatherDisplay:10.37,2013-01-02 06:28:00,
2013-01-02 01:33:00,11.6,6.1,30.24,WNW,295,5.8,5.8,78,0.00,CLR,,0.00,0.0,WeatherDisplay:10.37,2013-01-02 06:33:00,
2013-01-02 01:38:00,11.5,6.0,30.24,WNW,302,3.5,3.5,78,0.00,CLR,,0.00,0.0,WeatherDisplay:10.37,2013-01-02 06:38:00,
2013-01-02 01:43:00,11.5,6.2,30.24,WNW,295,4.6,4.6,79,0.00,CLR,,0.00,0.0,WeatherDisplay:10.37,2013-01-02 06:43:00,
2013-01-02 01:48:00,11.6,6.3,30.24,WNW,296,3.5,3.5,79,0.00,CLR,,0.00,0.0,WeatherDisplay:10.37,2013-01-02 06:48:00,
2013-01-02 01:53:00,11.6,6.1,30.24,WNW,287,4.6,4.6,78,0.00,CLR,,0.00,0.0,WeatherDisplay:10.37,2013-01-02 06:53:00,
2013-01-02 01:58:00,11.6,6.3,30.24,WNW,298,3.5,3.5,79,0.00,CLR,,0.00,0.0,WeatherDisplay:10.37,2013-01-02 06:58:00,
2013-01-02 02:03:00,11.6,6.3,30.23,NW,310,4.0,4.0,79,0.00,CLR,,0.00,0.0,WeatherDisplay:10.37,2013-01-02 07:03:00,
2013-01-02 02:08:00,11.6,6.3,30.23,West,279,4.0,4.0,79,0.00,CLR,,0.00,0.0,WeatherDisplay:10.37,2013-01-02 07:08:00,
2013-01-02 02:13:00,11.5,6.2,30.23,WNW,294,3.5,3.5,79,0.00,CLR,,0.00,0.0,WeatherDisplay:10.37,2013-01-02 07:13:00,
2013-01-02 02:18:00,11.5,6.2,30.23,NW,318,4.6,4.6,79,0.00,CLR,,0.00,0.0,WeatherDisplay:10.37,2013-01-02 07:18:00,
2013-01-02 02:23:00,11.5,6.2,30.24,West,279,3.5,3.5,79,0.00,CLR,,0.00,0.0,WeatherDisplay:10.37,2013-01-02 07:23:00,
2013-01-02 02:28:00,11.5,6.2,30.24,West,265,3.5,3.5,79,0.00,CLR,,0.00,0.0,WeatherDisplay:10.37,2013-01-02 07:28:00,
2013-01-02 02:33:00,11.4,6.2,30.24,WNW,293,4.6,4.6,79,0.00,CLR,,0.00,0.0,WeatherDisplay:10.37,2013-01-02 07:33:00,
2013-01-02 02:38:00,11.4,6.2,30.25,WNW,288,4.6,4.6,79,0.00,CLR,,0.00,0.0,WeatherDisplay:10.37,2013-01-02 07:38:00,
2013-01-02 02:43:00,11.4,6.2,30.25,West,271,5.8,5.8,79,0.00,CLR,,0.00,0.0,WeatherDisplay:10.37,2013-01-02 07:43:00,
2013-01-02 02:48:00,11.3,6.1,30.25,WNW,300,4.0,4.0,79,0.00,CLR,,0.00,0.0,WeatherDisplay:10.37,2013-01-02 07:48:00,
2013-01-02 02:53:00,11.4,5.9,30.25,West,277,4.0,4.0,78,0.00,CLR,,0.00,0.0,WeatherDisplay:10.37,2013-01-02 07:53:00,
2013-01-02 02:58:00,11.4,5.9,30.24,WNW,290,3.5,3.5,78,0.00,CLR,,0.00,0.0,WeatherDisplay:10.37,2013-01-02 07:58:00,
2013-01-02 03:03:00,11.3,5.8,30.25,West,271,3.5,3.5,78,0.00,CLR,,0.00,0.0,WeatherDisplay:10.37,2013-01-02 08:03:00,
2013-01-02 03:08:00,11.3,5.8,30.25,West,280,3.5,3.5,78,0.00,CLR,,0.00,0.0,WeatherDisplay:10.37,2013-01-02 08:08:00,
2013-01-02 03:13:00,11.3,5.8,30.25,WNW,284,4.6,4.6,78,0.00,CLR,,0.00,0.0,WeatherDisplay:10.37,2013-01-02 08:13:00,
2013-01-02 03:18:00,11.2,5.7,30.25,WNW,286,3.5,3.5,78,0.00,CLR,,0.00,0.0,WeatherDisplay:10.37,2013-01-02 08:18:00,
2013-01-02 03:23:00,11.2,5.7,30.25,WNW,288,3.5,3.5,78,0.00,CLR,,0.00,0.0,WeatherDisplay:10.37,2013-01-02 08:23:00,
2013-01-02 03:28:00,11.2,5.7,30.25,WNW,292,4.6,4.6,78,0.00,CLR,,0.00,0.0,WeatherDisplay:10.37,2013-01-02 08:28:00,
2013-01-02 03:33:00,11.2,6.0,30.25,West,281,3.5,3.5,79,0.00,CLR,,0.00,0.0,WeatherDisplay:10.37,2013-01-02 08:33:00,
2013-01-02 03:38:00,11.1,5.9,30.24,WNW,296,3.5,3.5,79,0.00,CLR,,0.00,0.0,WeatherDisplay:10.37,2013-01-02 08:38:00,
2013-01-02 03:43:00,11.0,5.5,30.24,WNW,297,4.6,4.6,78,0.00,CLR,,0.00,0.0,WeatherDisplay:10.37,2013-01-02 08:43:00,
2013-01-02 03:48:00,11.0,5.5,30.24,NW,325,3.5,3.5,78,0.00,CLR,,0.00,0.0,WeatherDisplay:10.37,2013-01-02 08:48:00,
2013-01-02 03:53:00,10.8,5.3,30.25,WNW,288,3.5,3.5,78,0.00,CLR,,0.00,0.0,WeatherDisplay:10.37,2013-01-02 08:53:00,
2013-01-02 03:58:00,11.0,5.5,30.25,WSW,253,4.0,4.0,78,0.00,CLR,,0.00,0.0,WeatherDisplay:10.37,2013-01-02 08:58:00,
2013-01-02 04:03:00,11.0,5.5,30.26,WSW,254,4.6,4.6,78,0.00,CLR,,0.00,0.0,WeatherDisplay:10.37,2013-01-02 09:03:00,
2013-01-02 04:08:00,11.0,5.2,30.25,WSW,253,3.5,3.5,77,0.00,CLR,,0.00,0.0,WeatherDisplay:10.37,2013-01-02 09:08:00,
2013-01-02 04:13:00,11.0,5.5,30.25,West,281,3.5,3.5,78,0.00,CLR,,0.00,0.0,WeatherDisplay:10.37,2013-01-02 09:13:00,
2013-01-02 04:18:00,11.0,5.5,30.25,WNW,286,3.5,3.5,78,0.00,CLR,,0.00,0.0,WeatherDisplay:10.37,2013-01-02 09:18:00,
2013-01-02 04:24:00,11.0,5.2,30.25,WNW,284,4.6,4.6,77,0.00,CLR,,0.00,0.0,WeatherDisplay:10.37,2013-01-02 09:24:00,
2013-01-02 04:29:00,11.0,5.2,30.25,West,259,4.0,4.0,77,0.00,CLR,,0.00,0.0,WeatherDisplay:10.37,2013-01-02 09:29:00,
2013-01-02 04:34:00,11.1,5.3,30.25,West,273,6.9,6.9,77,0.00,CLR,,0.00,0.0,WeatherDisplay:10.37,2013-01-02 09:34:00,
2013-01-02 04:39:00,11.2,5.1,30.26,West,280,3.5,3.5,76,0.00,CLR,,0.00,0.0,WeatherDisplay:10.37,2013-01-02 09:39:00,
2013-01-02 04:44:00,11.2,5.1,30.26,WNW,288,6.9,6.9,76,0.00,CLR,,0.00,0.0,WeatherDisplay:10.37,2013-01-02 09:44:00,
2013-01-02 04:49:00,11.1,5.0,30.26,WSW,257,3.5,3.5,76,0.00,CLR,,0.00,0.0,WeatherDisplay:10.37,2013-01-02 09:49:00,
2013-01-02 04:54:00,11.0,4.9,30.25,WSW,257,4.6,4.6,76,0.00,CLR,,0.00,0.0,WeatherDisplay:10.37,2013-01-02 09:54:00,
2013-01-02 04:59:00,11.0,5.2,30.25,WSW,250,4.6,4.6,77,0.00,CLR,,0.00,0.0,WeatherDisplay:10.37,2013-01-02 09:59:00,
2013-01-02 05:04:00,11.0,5.2,30.25,WSW,257,4.6,4.6,77,0.00,CLR,,0.00,0.0,WeatherDisplay:10.37,2013-01-02 10:04:00,
2013-01-02 05:09:00,11.0,5.2,30.25,WSW,243,3.5,3.5,77,0.00,CLR,,0.00,0.0,WeatherDisplay:10.37,2013-01-02 10:09:00,
2013-01-02 05:14:00,11.0,5.2,30.25,WSW,254,4.6,4.6,77,0.00,CLR,,0.00,0.0,WeatherDisplay:10.37,2013-01-02 10:14:00,
2013-01-02 05:19:00,11.0,4.9,30.25,West,270,4.6,4.6,76,0.00,CLR,,0.00,0.0,WeatherDisplay:10.37,2013-01-02 10:19:00,
2013-01-02 05:24:00,11.1,5.3,30.24,West,259,3.5,3.5,77,0.00,CLR,,0.00,0.0,WeatherDisplay:10.37,2013-01-02 10:24:00,
2013-01-02 05:29:00,10.9,5.4,30.24,WSW,242,4.0,4.0,78,0.00,CLR,,0.00,0.0,WeatherDisplay:10.37,2013-01-02 10:29:00,
2013-01-02 05:34:00,10.8,5.6,30.24,WSW,244,3.5,3.5,79,0.00,CLR,,0.00,0.0,WeatherDisplay:10.37,2013-01-02 10:34:00,
2013-01-02 05:39:00,10.6,5.6,30.24,WSW,244,2.3,2.3,80,0.00,CLR,,0.00,0.0,WeatherDisplay:10.37,2013-01-02 10:39:00,
2013-01-02 05:44:00,10.6,5.6,30.24,WSW,238,2.3,2.3,80,0.00,CLR,,0.00,0.0,WeatherDisplay:10.37,2013-01-02 10:44:00,
2013-01-02 05:49:00,10.4,5.7,30.24,WSW,238,3.5,3.5,81,0.00,CLR,,0.00,0.0,WeatherDisplay:10.37,2013-01-02 10:49:00,
2013-01-02 05:54:00,10.3,5.6,30.24,WSW,238,2.3,2.3,81,0.00,CLR,,0.00,0.0,WeatherDisplay:10.37,2013-01-02 10:54:00,
2013-01-02 05:59:00,10.2,5.5,30.24,WSW,238,2.3,2.3,81,0.00,CLR,,0.00,0.0,WeatherDisplay:10.37,2013-01-02 10:59:00,
2013-01-02 06:04:00,10.1,5.7,30.24,WSW,238,1.1,1.1,82,0.00,CLR,,0.00,0.0,WeatherDisplay:10.37,2013-01-02 11:04:00,
2013-01-02 06:09:00,10.1,5.4,30.24,WSW,238,2.3,2.3,81,0.00,CLR,,0.00,0.0,WeatherDisplay:10.37,2013-01-02 11:09:00,
2013-01-02 06:14:00,10.1,5.7,30.23,WSW,242,1.1,1.1,82,0.00,CLR,,0.00,0.0,WeatherDisplay:10.37,2013-01-02 11:14:00,
2013-01-02 06:19:00,10.1,5.7,30.23,WSW,242,2.3,2.3,82,0.00,CLR,,0.00,0.0,WeatherDisplay:10.37,2013-01-02 11:19:00,
2013-01-02 06:24:00,10.0,5.3,30.23,WSW,242,2.3,2.3,81,0.00,CLR,,0.00,0.0,WeatherDisplay:10.37,2013-01-02 11:24:00,
2013-01-02 06:29:00,10.1,5.4,30.23,WSW,242,3.5,3.5,81,0.00,CLR,,0.00,0.0,WeatherDisplay:10.37,2013-01-02 11:29:00,
2013-01-02 06:34:00,10.0,5.3,30.24,WSW,242,2.3,2.3,81,0.00,CLR,,0.00,0.0,WeatherDisplay:10.37,2013-01-02 11:34:00,
2013-01-02 06:39:00,10.0,5.3,30.23,WSW,242,1.1,1.1,81,0.00,CLR,,0.00,0.0,WeatherDisplay:10.37,2013-01-02 11:39:00,
2013-01-02 06:44:00,10.0,5.6,30.23,WSW,242,0.0,0.0,82,0.00,CLR,,0.00,0.0,WeatherDisplay:10.37,2013-01-02 11:44:00,
2013-01-02 06:49:00,10.1,5.7,30.23,WSW,242,1.1,1.1,82,0.00,CLR,,0.00,0.0,WeatherDisplay:10.37,2013-01-02 11:49:00,
2013-01-02 06:54:00,10.1,5.7,30.24,WSW,242,2.3,2.3,82,0.00,CLR,,0.00,0.0,WeatherDisplay:10.37,2013-01-02 11:54:00,
2013-01-02 06:59:00,10.0,5.6,30.24,SSW,196,3.5,3.5,82,0.00,CLR,,0.00,0.0,WeatherDisplay:10.37,2013-01-02 11:59:00,
2013-01-02 07:04:00,9.9,5.2,30.24,SSW,204,2.3,2.3,81,0.00,CLR,,0.00,0.0,WeatherDisplay:10.37,2013-01-02 12:04:00,
2013-01-02 07:09:00,9.9,5.2,30.24,SSW,204,1.1,1.1,81,0.00,CLR,,0.00,0.0,WeatherDisplay:10.37,2013-01-02 12:09:00,
2013-01-02 07:14:00,9.8,5.1,30.24,SSW,203,1.1,1.1,81,0.00,CLR,,0.00,0.0,WeatherDisplay:10.37,2013-01-02 12:14:00,
2013-01-02 07:19:00,9.7,5.3,30.24,SSW,204,0.0,0.0,82,0.00,CLR,,0.00,0.0,WeatherDisplay:10.37,2013-01-02 12:19:00,
2013-01-02 07:24:00,9.7,5.3,30.24,SSW,204,2.0,2.0,82,0.00,CLR,,0.00,0.0,WeatherDisplay:10.37,2013-01-02 12:24:00,
2013-01-02 07:29:00,9.7,5.3,30.24,SSW,204,2.3,2.3,82,0.00,CLR,,0.00,0.0,WeatherDisplay:10.37,2013-01-02 12:29:00,
2013-01-02 07:34:00,9.8,5.4,30.25,SW,219,4.0,4.0,82,0.00,CLR,,0.00,0.0,WeatherDisplay:10.37,2013-01-02 12:34:00,
2013-01-02 07:39:00,9.8,5.1,30.25,SW,233,3.5,3.5,81,0.00,CLR,,0.00,0.0,WeatherDisplay:10.37,2013-01-02 12:39:00,
2013-01-02 07:44:00,9.7,5.0,30.25,SW,232,3.5,3.5,81,0.00,CLR,,0.00,0.0,WeatherDisplay:10.37,2013-01-02 12:44:00,
2013-01-02 07:49:00,9.6,4.9,30.25,WSW,237,2.3,2.3,81,0.00,CLR,,0.00,0.0,WeatherDisplay:10.37,2013-01-02 12:49:00,
2013-01-02 07:54:00,9.6,4.9,30.26,SW,236,2.3,2.3,81,0.00,CLR,,0.00,0.0,WeatherDisplay:10.37,2013-01-02 12:54:00,
2013-01-02 07:59:00,9.6,4.9,30.26,SW,228,3.5,3.5,81,0.00,CLR,,0.00,0.0,WeatherDisplay:10.37,2013-01-02 12:59:00,
2013-01-02 08:04:00,9.5,4.8,30.26,SW,224,2.3,2.3,81,0.00,CLR,,0.00,0.0,WeatherDisplay:10.37,2013-01-02 13:04:00,
2013-01-02 08:09:00,9.5,4.8,30.26,SW,224,1.1,1.1,81,0.00,CLR,,0.00,0.0,WeatherDisplay:10.37,2013-01-02 13:09:00,
2013-01-02 08:14:00,9.4,4.7,30.26,SW,226,2.3,2.3,81,0.00,CLR,,0.00,0.0,WeatherDisplay:10.37,2013-01-02 13:14:00,
2013-01-02 08:19:00,9.4,4.7,30.26,SW,232,4.6,4.6,81,0.00,CLR,,0.00,0.0,WeatherDisplay:10.37,2013-01-02 13:19:00,
2013-01-02 08:24:00,9.5,4.8,30.26,SW,230,3.5,3.5,81,0.00,CLR,,0.00,5.0,WeatherDisplay:10.37,2013-01-02 13:24:00,
2013-01-02 08:29:00,9.5,4.8,30.26,SW,229,3.5,3.5,81,0.00,CLR,,0.00,9.0,WeatherDisplay:10.37,2013-01-02 13:29:00,
2013-01-02 08:34:00,9.5,4.8,30.26,WSW,238,3.5,3.5,81,0.00,CLR,,0.00,9.0,WeatherDisplay:10.37,2013-01-02 13:34:00,
2013-01-02 08:39:00,9.6,4.9,30.26,WSW,239,3.5,3.5,81,0.00,CLR,,0.00,12.0,WeatherDisplay:10.37,2013-01-02 13:39:00,
2013-01-02 08:44:00,9.6,4.7,30.26,SW,232,3.5,3.5,80,0.00,CLR,,0.00,26.0,WeatherDisplay:10.37,2013-01-02 13:44:00,
2013-01-02 08:49:00,9.8,4.9,30.26,SW,232,2.3,2.3,80,0.00,CLR,,0.00,39.0,WeatherDisplay:10.37,2013-01-02 13:49:00,
2013-01-02 08:54:00,10.1,5.2,30.26,SW,217,3.5,3.5,80,0.00,CLR,,0.00,53.0,WeatherDisplay:10.37,2013-01-02 13:54:00,
2013-01-02 08:59:00,10.4,5.2,30.26,SW,226,4.6,4.6,79,0.00,CLR,,0.00,67.0,WeatherDisplay:10.37,2013-01-02 13:59:00,
2013-01-02 09:04:00,10.6,5.4,30.26,WSW,245,3.5,3.5,79,0.00,CLR,,0.00,79.0,WeatherDisplay:10.37,2013-01-02 14:04:00,
2013-01-02 09:09:00,10.9,5.7,30.27,WSW,249,4.6,4.6,79,0.00,CLR,,0.00,90.0,WeatherDisplay:10.37,2013-01-02 14:09:00,
2013-01-02 09:14:00,11.2,5.7,30.27,SW,234,5.8,5.8,78,0.00,CLR,,0.00,104.0,WeatherDisplay:10.37,2013-01-02 14:14:00,
2013-01-02 09:19:00,11.6,6.1,30.27,WSW,242,5.8,5.8,78,0.00,CLR,,0.00,116.0,WeatherDisplay:10.37,2013-01-02 14:19:00,
2013-01-02 09:24:00,11.9,6.1,30.27,West,267,5.8,5.8,77,0.00,CLR,,0.00,128.0,WeatherDisplay:10.37,2013-01-02 14:24:00,
2013-01-02 09:29:00,12.3,6.2,30.27,SW,235,5.8,5.8,76,0.00,CLR,,0.00,141.0,WeatherDisplay:10.37,2013-01-02 14:29:00,
2013-01-02 09:34:00,12.8,6.9,30.27,SW,227,5.0,5.0,77,0.00,CLR,,0.00,153.0,WeatherDisplay:10.37,2013-01-02 14:34:00,
2013-01-02 09:39:00,13.1,7.0,30.27,SW,227,5.8,5.8,76,0.00,CLR,,0.00,163.0,WeatherDisplay:10.37,2013-01-02 14:39:00,
2013-01-02 09:44:00,13.5,7.0,30.28,SW,230,4.6,4.6,75,0.00,CLR,,0.00,174.0,WeatherDisplay:10.37,2013-01-02 14:44:00,
2013-01-02 09:49:00,13.9,7.1,30.28,WSW,249,4.6,4.6,74,0.00,CLR,,0.00,185.0,WeatherDisplay:10.37,2013-01-02 14:49:00,
2013-01-02 09:54:00,14.3,7.2,30.27,WSW,253,3.5,3.5,73,0.00,CLR,,0.00,199.0,WeatherDisplay:10.37,2013-01-02 14:54:00,
2013-01-02 09:59:00,14.6,6.9,30.28,WSW,240,3.5,3.5,71,0.00,CLR,,0.00,213.0,WeatherDisplay:10.37,2013-01-02 14:59:00,
2013-01-02 10:04:00,15.1,7.4,30.28,SW,232,5.8,5.8,71,0.00,CLR,,0.00,229.0,WeatherDisplay:10.37,2013-01-02 15:04:00,
2013-01-02 10:09:00,15.7,7.6,30.28,SSW,202,3.5,3.5,70,0.00,CLR,,0.00,241.0,WeatherDisplay:10.37,2013-01-02 15:09:00,
2013-01-02 10:14:00,16.2,7.8,30.28,SSW,202,4.0,4.0,69,0.00,CLR,,0.00,255.0,WeatherDisplay:10.37,2013-01-02 15:14:00,
2013-01-02 10:19:00,16.5,7.1,30.28,SW,218,5.8,5.8,66,0.00,CLR,,0.00,267.0,WeatherDisplay:10.37,2013-01-02 15:19:00,
2013-01-02 10:24:00,16.9,7.5,30.28,WSW,238,6.9,6.9,66,0.00,CLR,,0.00,276.0,WeatherDisplay:10.37,2013-01-02 15:24:00,
2013-01-02 10:29:00,17.2,7.4,30.28,SW,227,4.0,4.0,65,0.00,CLR,,0.00,285.0,WeatherDisplay:10.37,2013-01-02 15:29:00,
2013-01-02 10:34:00,17.7,8.3,30.28,SW,220,3.5,3.5,66,0.00,CLR,,0.00,297.0,WeatherDisplay:10.37,2013-01-02 15:34:00,
2013-01-02 10:40:00,17.9,7.1,30.28,WSW,239,8.1,8.1,62,0.00,CLR,,0.00,308.0,WeatherDisplay:10.37,2013-01-02 15:40:00,
2013-01-02 10:45:00,18.1,7.3,30.28,SSW,208,5.8,5.8,62,0.00,CLR,,0.00,316.0,WeatherDisplay:10.37,2013-01-02 15:45:00,
2013-01-02 10:50:00,18.2,7.0,30.28,SW,217,5.8,5.8,61,0.00,CLR,,0.00,322.0,WeatherDisplay:10.37,2013-01-02 15:50:00,
2013-01-02 10:55:00,18.5,6.5,30.28,SSW,205,6.9,6.9,59,0.00,CLR,,0.00,332.0,WeatherDisplay:10.37,2013-01-02 15:55:00,
2013-01-02 11:00:00,18.8,6.8,30.28,SW,227,7.0,7.0,59,0.00,CLR,,0.00,343.0,WeatherDisplay:10.37,2013-01-02 16:00:00,
2013-01-02 11:05:00,19.1,7.1,30.28,SW,231,9.2,9.2,59,0.00,CLR,,0.00,352.0,WeatherDisplay:10.37,2013-01-02 16:05:00,
2013-01-02 11:10:00,19.4,7.0,30.27,SSW,196,6.9,6.9,58,0.00,CLR,,0.00,359.0,WeatherDisplay:10.37,2013-01-02 16:10:00,
2013-01-02 11:15:00,19.7,7.3,30.27,SW,221,6.9,6.9,58,0.00,CLR,,0.00,369.0,WeatherDisplay:10.37,2013-01-02 16:15:00,
2013-01-02 11:20:00,19.8,7.8,30.27,SW,234,4.6,5.0,59,0.00,CLR,,0.00,376.0,WeatherDisplay:10.37,2013-01-02 16:20:00,
2013-01-02 11:25:00,20.0,8.0,30.27,SSW,193,7.0,7.0,59,0.00,CLR,,0.00,381.0,WeatherDisplay:10.37,2013-01-02 16:25:00,
2013-01-02 11:30:00,20.0,6.4,30.27,SSE,159,6.0,6.0,55,0.00,CLR,,0.00,390.0,WeatherDisplay:10.37,2013-01-02 16:30:00,
2013-01-02 11:35:00,20.3,7.1,30.26,SW,214,6.9,6.9,56,0.00,CLR,,0.00,397.0,WeatherDisplay:10.37,2013-01-02 16:35:00,
2013-01-02 11:40:00,20.6,8.1,30.26,SSE,165,7.0,7.0,58,0.00,CLR,,0.00,403.0,WeatherDisplay:10.37,2013-01-02 16:40:00,
2013-01-02 11:45:00,20.8,7.6,30.26,SSW,200,8.1,8.1,56,0.00,CLR,,0.00,378.0,WeatherDisplay:10.37,2013-01-02 16:45:00,
2013-01-02 11:50:00,20.9,7.6,30.26,South,182,8.1,8.1,56,0.00,CLR,,0.00,411.0,WeatherDisplay:10.37,2013-01-02 16:50:00,
2013-01-02 11:55:00,20.9,8.0,30.25,South,177,9.2,9.2,57,0.00,CLR,,0.00,418.0,WeatherDisplay:10.37,2013-01-02 16:55:00,
2013-01-02 12:00:00,20.9,7.6,30.25,South,191,10.4,10.4,56,0.00,CLR,,0.00,429.0,WeatherDisplay:10.37,2013-01-02 17:00:00,
2013-01-02 12:05:00,20.8,7.6,30.25,South,186,10.4,10.4,56,0.00,CLR,,0.00,431.0,WeatherDisplay:10.37,2013-01-02 17:05:00,
2013-01-02 12:10:00,20.9,7.2,30.25,South,191,10.4,10.4,55,0.00,CLR,,0.00,438.0,WeatherDisplay:10.37,2013-01-02 17:10:00,
2013-01-02 12:15:00,21.2,9.1,30.25,South,182,9.0,9.0,59,0.00,CLR,,0.00,457.0,WeatherDisplay:10.37,2013-01-02 17:15:00,
2013-01-02 12:20:00,21.2,7.9,30.24,SSW,210,8.1,8.1,56,0.00,CLR,,0.00,452.0,WeatherDisplay:10.37,2013-01-02 17:20:00,
2013-01-02 12:25:00,21.6,7.9,30.25,SW,221,9.0,9.0,55,0.00,CLR,,0.00,448.0,WeatherDisplay:10.37,2013-01-02 17:25:00,
2013-01-02 12:30:00,21.7,8.4,30.24,SW,218,11.0,11.0,56,0.00,CLR,,0.00,446.0,WeatherDisplay:10.37,2013-01-02 17:30:00,
2013-01-02 12:35:00,21.6,8.3,30.24,SSW,194,10.4,10.4,56,0.00,CLR,,0.00,443.0,WeatherDisplay:10.37,2013-01-02 17:35:00,
2013-01-02 12:40:00,21.8,9.3,30.24,SW,215,6.9,6.9,58,0.00,CLR,,0.00,446.0,WeatherDisplay:10.37,2013-01-02 17:40:00,
2013-01-02 12:45:00,21.7,8.4,30.23,South,183,9.2,9.2,56,0.00,CLR,,0.00,446.0,WeatherDisplay:10.37,2013-01-02 17:45:00,
2013-01-02 12:50:00,21.5,7.4,30.23,SSW,207,11.5,11.5,54,0.00,CLR,,0.00,446.0,WeatherDisplay:10.37,2013-01-02 17:50:00,
2013-01-02 12:55:00,21.6,7.9,30.23,SW,221,10.4,10.4,55,0.00,CLR,,0.00,445.0,WeatherDisplay:10.37,2013-01-02 17:55:00,
2013-01-02 13:00:00,21.8,7.7,30.22,SSW,200,9.2,9.2,54,0.00,CLR,,0.00,443.0,WeatherDisplay:10.37,2013-01-02 18:00:00,
2013-01-02 13:05:00,22.1,9.6,30.22,SSW,200,8.0,8.0,58,0.00,CLR,,0.00,443.0,WeatherDisplay:10.37,2013-01-02 18:05:00,
2013-01-02 13:10:00,22.4,10.6,30.22,South,173,12.0,12.0,60,0.00,CLR,,0.00,441.0,WeatherDisplay:10.37,2013-01-02 18:10:00,
2013-01-02 13:15:00,22.2,9.7,30.22,South,185,9.2,9.2,58,0.00,CLR,,0.00,441.0,WeatherDisplay:10.37,2013-01-02 18:15:00,
2013-01-02 13:20:00,22.5,11.1,30.22,South,179,13.0,13.0,61,0.00,CLR,,0.00,439.0,WeatherDisplay:10.37,2013-01-02 18:20:00,
2013-01-02 13:25:00,22.6,9.2,30.22,SSW,194,11.5,11.5,56,0.00,CLR,,0.00,436.0,WeatherDisplay:10.37,2013-01-02 18:25:00,
2013-01-02 13:30:00,22.7,11.6,30.21,SSE,157,9.2,9.2,62,0.00,CLR,,0.00,434.0,WeatherDisplay:10.37,2013-01-02 18:30:00,
2013-01-02 13:35:00,22.7,10.9,30.21,South,182,12.0,12.0,60,0.00,CLR,,0.00,431.0,WeatherDisplay:10.37,2013-01-02 18:35:00,
2013-01-02 13:40:00,22.8,11.7,30.21,SSW,206,10.4,10.4,62,0.00,CLR,,0.00,425.0,WeatherDisplay:10.37,2013-01-02 18:40:00,
2013-01-02 13:45:00,22.7,10.9,30.21,South,175,11.5,11.5,60,0.00,CLR,,0.00,420.0,WeatherDisplay:10.37,2013-01-02 18:45:00,
2013-01-02 13:50:00,22.7,11.6,30.21,SSE,167,11.5,11.5,62,0.00,CLR,,0.00,418.0,WeatherDisplay:10.37,2013-01-02 18:50:00,
2013-01-02 13:55:00,22.9,11.8,30.20,South,173,12.7,12.7,62,0.00,CLR,,0.00,415.0,WeatherDisplay:10.37,2013-01-02 18:55:00,
2013-01-02 14:00:00,22.8,11.7,30.20,South,185,11.5,11.5,62,0.00,CLR,,0.00,410.0,WeatherDisplay:10.37,2013-01-02 19:00:00,
2013-01-02 14:05:00,23.0,13.0,30.20,SSE,168,12.7,12.7,65,0.00,CLR,,0.00,406.0,WeatherDisplay:10.37,2013-01-02 19:05:00,
2013-01-02 14:10:00,23.2,12.5,30.20,South,179,15.0,15.0,63,0.00,CLR,,0.00,399.0,WeatherDisplay:10.37,2013-01-02 19:10:00,
2013-01-02 14:15:00,23.0,11.9,30.20,South,184,13.8,13.8,62,0.00,CLR,,0.00,392.0,WeatherDisplay:10.37,2013-01-02 19:15:00,
2013-01-02 14:20:00,22.7,12.3,30.20,SSE,159,12.7,12.7,64,0.00,CLR,,0.00,387.0,WeatherDisplay:10.37,2013-01-02 19:20:00,
2013-01-02 14:25:00,22.8,12.4,30.20,SSE,167,15.0,15.0,64,0.00,CLR,,0.00,381.0,WeatherDisplay:10.37,2013-01-02 19:25:00,
2013-01-02 14:30:00,22.9,11.8,30.19,South,174,12.7,12.7,62,0.00,CLR,,0.00,374.0,WeatherDisplay:10.37,2013-01-02 19:30:00,
2013-01-02 14:36:00,23.0,13.0,30.19,South,190,12.7,12.7,65,0.00,CLR,,0.00,367.0,WeatherDisplay:10.37,2013-01-02 19:36:00,
2013-01-02 14:41:00,23.1,12.7,30.19,SSE,163,13.8,13.8,64,0.00,CLR,,0.00,360.0,WeatherDisplay:10.37,2013-01-02 19:41:00,
2013-01-02 14:46:00,23.3,12.6,30.20,South,189,11.5,11.5,63,0.00,CLR,,0.00,353.0,WeatherDisplay:10.37,2013-01-02 19:46:00,
2013-01-02 14:51:00,23.4,11.5,30.20,South,184,12.0,12.0,60,0.00,CLR,,0.00,345.0,WeatherDisplay:10.37,2013-01-02 19:51:00,
2013-01-02 14:56:00,23.4,12.6,30.19,South,173,15.0,15.0,63,0.00,CLR,,0.00,336.0,WeatherDisplay:10.37,2013-01-02 19:56:00,
2013-01-02 15:01:00,23.4,12.3,30.20,SSW,206,13.8,13.8,62,0.00,CLR,,0.00,325.0,WeatherDisplay:10.37,2013-01-02 20:01:00,
2013-01-02 15:06:00,23.5,12.7,30.19,South,183,12.7,12.7,63,0.00,CLR,,0.00,316.0,WeatherDisplay:10.37,2013-01-02 20:06:00,
2013-01-02 15:11:00,23.8,13.0,30.19,South,186,12.7,12.7,63,0.00,CLR,,0.00,308.0,WeatherDisplay:10.37,2013-01-02 20:11:00,
2013-01-02 15:16:00,23.9,12.4,30.19,South,186,12.0,12.0,61,0.00,CLR,,0.00,299.0,WeatherDisplay:10.37,2013-01-02 20:16:00,
2013-01-02 15:21:00,23.9,12.0,30.19,SSW,205,9.2,9.2,60,0.00,CLR,,0.00,288.0,WeatherDisplay:10.37,2013-01-02 20:21:00,
2013-01-02 15:26:00,23.8,13.0,30.19,SSW,192,13.8,13.8,63,0.00,CLR,,0.00,278.0,WeatherDisplay:10.37,2013-01-02 20:26:00,
2013-01-02 15:31:00,23.6,13.5,30.19,South,175,15.0,15.0,65,0.00,CLR,,0.00,267.0,WeatherDisplay:10.37,2013-01-02 20:31:00,
2013-01-02 15:36:00,23.5,14.1,30.19,South,176,15.0,15.0,67,0.00,CLR,,0.00,253.0,WeatherDisplay:10.37,2013-01-02 20:36:00,
2013-01-02 15:41:00,23.4,13.7,30.19,South,173,11.5,11.5,66,0.00,CLR,,0.00,239.0,WeatherDisplay:10.37,2013-01-02 20:41:00,
2013-01-02 15:46:00,23.5,14.1,30.19,South,171,11.5,11.5,67,0.00,CLR,,0.00,225.0,WeatherDisplay:10.37,2013-01-02 20:46:00,
2013-01-02 15:51:00,23.5,14.5,30.19,SSE,167,11.5,11.5,68,0.00,CLR,,0.00,213.0,WeatherDisplay:10.37,2013-01-02 20:51:00,
2013-01-02 15:56:00,23.6,14.6,30.20,South,175,13.8,13.8,68,0.00,CLR,,0.00,199.0,WeatherDisplay:10.37,2013-01-02 20:56:00,
2013-01-02 16:01:00,23.4,14.4,30.19,South,173,16.1,16.1,68,0.00,CLR,,0.00,181.0,WeatherDisplay:10.37,2013-01-02 21:01:00,
2013-01-02 16:06:00,23.2,14.2,30.20,South,175,17.3,17.3,68,0.00,CLR,,0.00,169.0,WeatherDisplay:10.37,2013-01-02 21:06:00,
2013-01-02 16:11:00,23.3,14.6,30.20,South,188,11.5,11.5,69,0.00,CLR,,0.00,158.0,WeatherDisplay:10.37,2013-01-02 21:11:00,
2013-01-02 16:16:00,23.4,14.7,30.20,South,182,13.8,13.8,69,0.00,CLR,,0.00,137.0,WeatherDisplay:10.37,2013-01-02 21:16:00,
2013-01-02 16:21:00,23.2,13.5,30.20,South,190,16.0,16.0,66,0.00,CLR,,0.00,123.0,WeatherDisplay:10.37,2013-01-02 21:21:00,
2013-01-02 16:26:00,23.1,14.4,30.20,South,182,13.8,13.8,69,0.00,CLR,,0.00,109.0,WeatherDisplay:10.37,2013-01-02 21:26:00,
2013-01-02 16:31:00,22.9,14.6,30.21,South,182,11.5,11.5,70,0.00,CLR,,0.00,97.0,WeatherDisplay:10.37,2013-01-02 21:31:00,
2013-01-02 16:36:00,23.2,13.9,30.21,South,181,15.0,15.0,67,0.00,CLR,,0.00,83.0,WeatherDisplay:10.37,2013-01-02 21:36:00,
2013-01-02 16:41:00,23.1,13.1,30.21,South,179,13.8,13.8,65,0.00,CLR,,0.00,70.0,WeatherDisplay:10.37,2013-01-02 21:41:00,
2013-01-02 16:46:00,22.9,13.2,30.21,SSW,211,15.0,15.0,66,0.00,CLR,,0.00,58.0,WeatherDisplay:10.37,2013-01-02 21:46:00,
2013-01-02 16:51:00,22.9,13.6,30.21,SSE,154,13.8,13.8,67,0.00,CLR,,0.00,47.0,WeatherDisplay:10.37,2013-01-02 21:51:00,
2013-01-02 16:56:00,22.9,13.9,30.21,South,182,13.8,13.8,68,0.00,CLR,,0.00,37.0,WeatherDisplay:10.37,2013-01-02 21:56:00,
2013-01-02 17:01:00,22.7,13.7,30.20,South,181,13.0,13.0,68,0.00,CLR,,0.00,28.0,WeatherDisplay:10.37,2013-01-02 22:01:00,
2013-01-02 17:06:00,22.5,13.9,30.21,South,171,11.5,11.5,69,0.00,CLR,,0.00,21.0,WeatherDisplay:10.37,2013-01-02 22:06:00,
2013-01-02 17:11:00,22.3,13.7,30.20,South,183,16.1,16.1,69,0.00,CLR,,0.00,16.0,WeatherDisplay:10.37,2013-01-02 22:11:00,
2013-01-02 17:16:00,22.2,13.6,30.20,SSE,168,12.0,12.0,69,0.00,CLR,,0.00,12.0,WeatherDisplay:10.37,2013-01-02 22:16:00,
2013-01-02 17:21:00,22.0,13.7,30.20,SSW,194,15.0,15.0,70,0.00,CLR,,0.00,11.0,WeatherDisplay:10.37,2013-01-02 22:21:00,
2013-01-02 17:26:00,21.8,13.8,30.20,South,186,12.7,12.7,71,0.00,CLR,,0.00,9.0,WeatherDisplay:10.37,2013-01-02 22:26:00,
2013-01-02 17:31:00,21.7,14.1,30.20,SSW,193,11.5,11.5,72,0.00,CLR,,0.00,5.0,WeatherDisplay:10.37,2013-01-02 22:31:00,
2013-01-02 17:36:00,21.5,14.2,30.20,South,185,8.1,8.1,73,0.00,CLR,,0.00,0.0,WeatherDisplay:10.37,2013-01-02 22:36:00,
2013-01-02 17:41:00,21.2,14.2,30.20,South,178,9.2,9.2,74,0.00,CLR,,0.00,0.0,WeatherDisplay:10.37,2013-01-02 22:41:00,
2013-01-02 17:46:00,20.9,14.2,30.20,South,182,8.1,8.1,75,0.00,CLR,,0.00,0.0,WeatherDisplay:10.37,2013-01-02 22:46:00,
2013-01-02 17:51:00,20.7,14.0,30.20,South,187,12.7,12.7,75,0.00,CLR,,0.00,0.0,WeatherDisplay:10.37,2013-01-02 22:51:00,
2013-01-02 17:56:00,20.7,14.0,30.21,South,178,10.4,10.4,75,0.00,CLR,,0.00,0.0,WeatherDisplay:10.37,2013-01-02 22:56:00,
2013-01-02 18:01:00,20.6,13.9,30.21,South,182,12.7,12.7,75,0.00,CLR,,0.00,0.0,WeatherDisplay:10.37,2013-01-02 23:01:00,
2013-01-02 18:06:00,20.7,14.0,30.21,South,173,10.4,10.4,75,0.00,CLR,,0.00,0.0,WeatherDisplay:10.37,2013-01-02 23:06:00,
2013-01-02 18:11:00,20.7,14.0,30.20,South,187,11.5,11.5,75,0.00,CLR,,0.00,0.0,WeatherDisplay:10.37,2013-01-02 23:11:00,
2013-01-02 18:16:00,20.5,14.1,30.20,South,183,11.5,11.5,76,0.00,CLR,,0.00,0.0,WeatherDisplay:10.37,2013-01-02 23:16:00,
2013-01-02 18:21:00,20.5,14.1,30.21,South,190,11.5,11.5,76,0.00,CLR,,0.00,0.0,WeatherDisplay:10.37,2013-01-02 23:21:00,
2013-01-02 18:26:00,20.5,14.1,30.21,South,190,11.0,11.0,76,0.00,CLR,,0.00,0.0,WeatherDisplay:10.37,2013-01-02 23:26:00,
2013-01-02 18:31:00,20.5,14.4,30.21,South,184,11.5,11.5,77,0.00,CLR,,0.00,0.0,WeatherDisplay:10.37,2013-01-02 23:31:00,
2013-01-02 18:36:00,20.3,14.2,30.20,South,171,9.0,9.0,77,0.00,CLR,,0.00,0.0,WeatherDisplay:10.37,2013-01-02 23:36:00,
2013-01-02 18:41:00,20.0,14.2,30.20,SSE,167,11.5,11.5,78,0.00,CLR,,0.00,0.0,WeatherDisplay:10.37,2013-01-02 23:41:00,
2013-01-02 18:46:00,20.0,14.2,30.20,South,174,11.5,11.5,78,0.00,CLR,,0.00,0.0,WeatherDisplay:10.37,2013-01-02 23:46:00,
2013-01-02 18:51:00,19.8,14.3,30.20,South,174,9.2,9.2,79,0.00,CLR,,0.00,0.0,WeatherDisplay:10.37,2013-01-02 23:51:00,
2013-01-02 18:56:00,19.6,14.1,30.20,South,173,8.1,8.1,79,0.00,CLR,,0.00,0.0,WeatherDisplay:10.37,2013-01-02 23:56:00,
2013-01-02 19:01:00,19.4,13.9,30.20,SSE,168,8.1,8.1,79,0.00,CLR,,0.00,0.0,WeatherDisplay:10.37,2013-01-03 00:01:00,
2013-01-02 19:06:00,19.3,14.1,30.20,South,182,11.5,11.5,80,0.00,CLR,,0.00,0.0,WeatherDisplay:10.37,2013-01-03 00:06:00,
2013-01-02 19:11:00,19.6,14.1,30.20,South,175,11.5,11.5,79,0.00,CLR,,0.00,0.0,WeatherDisplay:10.37,2013-01-03 00:11:00,
2013-01-02 19:16:00,19.7,14.0,30.20,South,178,12.0,12.0,78,0.00,CLR,,0.00,0.0,WeatherDisplay:10.37,2013-01-03 00:16:00,
2013-01-02 19:21:00,19.7,14.0,30.20,SSW,194,12.7,12.7,78,0.00,CLR,,0.00,0.0,WeatherDisplay:10.37,2013-01-03 00:21:00,
2013-01-02 19:26:00,19.7,13.7,30.20,South,186,11.5,11.5,77,0.00,CLR,,0.00,0.0,WeatherDisplay:10.37,2013-01-03 00:26:00,
2013-01-02 19:31:00,19.7,13.7,30.20,South,180,11.5,11.5,77,0.00,CLR,,0.00,0.0,WeatherDisplay:10.37,2013-01-03 00:31:00,
2013-01-02 19:36:00,19.6,13.6,30.20,South,187,11.5,11.5,77,0.00,CLR,,0.00,0.0,WeatherDisplay:10.37,2013-01-03 00:36:00,
2013-01-02 19:41:00,19.4,13.4,30.20,SSW,195,8.1,8.1,77,0.00,CLR,,0.00,0.0,WeatherDisplay:10.37,2013-01-03 00:41:00,
2013-01-02 19:46:00,19.3,13.3,30.21,South,180,10.4,10.4,77,0.00,CLR,,0.00,0.0,WeatherDisplay:10.37,2013-01-03 00:46:00,
2013-01-02 19:51:00,19.2,13.2,30.21,SSW,192,10.4,10.4,77,0.00,CLR,,0.00,0.0,WeatherDisplay:10.37,2013-01-03 00:51:00,
2013-01-02 19:57:00,19.1,13.1,30.21,South,190,8.1,8.1,77,0.00,CLR,,0.00,0.0,WeatherDisplay:10.37,2013-01-03 00:57:00,
2013-01-02 20:02:00,19.0,13.3,30.21,South,178,9.2,9.2,78,0.00,CLR,,0.00,0.0,WeatherDisplay:10.37,2013-01-03 01:02:00,
2013-01-02 20:07:00,18.9,13.2,30.21,South,186,10.4,10.4,78,0.00,CLR,,0.00,0.0,WeatherDisplay:10.37,2013-01-03 01:07:00,
2013-01-02 20:12:00,18.8,13.1,30.20,South,176,9.2,9.2,78,0.00,CLR,,0.00,0.0,WeatherDisplay:10.37,2013-01-03 01:12:00,
2013-01-02 20:17:00,18.6,12.9,30.20,South,186,11.5,11.5,78,0.00,CLR,,0.00,0.0,WeatherDisplay:10.37,2013-01-03 01:17:00,
2013-01-02 20:22:00,18.7,13.0,30.20,South,188,12.7,12.7,78,0.00,CLR,,0.00,0.0,WeatherDisplay:10.37,2013-01-03 01:22:00,
2013-01-02 20:27:00,18.8,12.8,30.20,South,171,15.0,15.0,77,0.00,CLR,,0.00,0.0,WeatherDisplay:10.37,2013-01-03 01:27:00,
2013-01-02 20:32:00,18.8,12.8,30.20,South,182,11.5,11.5,77,0.00,CLR,,0.00,0.0,WeatherDisplay:10.37,2013-01-03 01:32:00,
2013-01-02 20:37:00,18.7,12.4,30.20,South,184,11.5,11.5,76,0.00,CLR,,0.00,0.0,WeatherDisplay:10.37,2013-01-03 01:37:00,
2013-01-02 20:42:00,18.6,12.3,30.20,South,185,11.5,11.5,76,0.00,CLR,,0.00,0.0,WeatherDisplay:10.37,2013-01-03 01:42:00,
2013-01-02 20:47:00,18.5,12.2,30.20,South,178,11.5,11.5,76,0.00,CLR,,0.00,0.0,WeatherDisplay:10.37,2013-01-03 01:47:00,
2013-01-02 20:52:00,18.5,12.2,30.20,South,184,11.5,11.5,76,0.00,CLR,,0.00,0.0,WeatherDisplay:10.37,2013-01-03 01:52:00,
2013-01-02 20:57:00,18.4,12.1,30.20,South,178,11.5,11.5,76,0.00,CLR,,0.00,0.0,WeatherDisplay:10.37,2013-01-03 01:57:00,
2013-01-02 21:02:00,18.4,12.1,30.20,SSW,192,11.5,11.5,76,0.00,CLR,,0.00,0.0,WeatherDisplay:10.37,2013-01-03 02:02:00,
2013-01-02 21:07:00,18.2,11.9,30.20,South,188,10.4,10.4,76,0.00,CLR,,0.00,0.0,WeatherDisplay:10.37,2013-01-03 02:07:00,
2013-01-02 21:12:00,18.3,12.0,30.20,South,190,11.5,11.5,76,0.00,CLR,,0.00,0.0,WeatherDisplay:10.37,2013-01-03 02:12:00,
2013-01-02 21:17:00,18.2,11.9,30.20,South,188,9.2,9.2,76,0.00,CLR,,0.00,0.0,WeatherDisplay:10.37,2013-01-03 02:17:00,
2013-01-02 21:22:00,18.2,11.9,30.20,South,184,11.5,11.5,76,0.00,CLR,,0.00,0.0,WeatherDisplay:10.37,2013-01-03 02:22:00,
2013-01-02 21:27:00,18.1,11.8,30.20,South,186,11.5,11.5,76,0.00,CLR,,0.00,0.0,WeatherDisplay:10.37,2013-01-03 02:27:00,
2013-01-02 21:32:00,18.1,11.8,30.20,South,171,9.2,9.2,76,0.00,CLR,,0.00,0.0,WeatherDisplay:10.37,2013-01-03 02:32:00,
2013-01-02 21:37:00,18.1,11.8,30.20,South,170,9.2,9.2,76,0.00,CLR,,0.00,0.0,WeatherDisplay:10.37,2013-01-03 02:37:00,
2013-01-02 21:42:00,18.1,11.8,30.20,SW,218,8.1,8.1,76,0.00,CLR,,0.00,0.0,WeatherDisplay:10.37,2013-01-03 02:42:00,
2013-01-02 21:47:00,18.1,11.8,30.20,South,187,8.1,8.1,76,0.00,CLR,,0.00,0.0,WeatherDisplay:10.37,2013-01-03 02:47:00,
2013-01-02 21:52:00,18.0,11.7,30.20,SSW,210,10.4,10.4,76,0.00,CLR,,0.00,0.0,WeatherDisplay:10.37,2013-01-03 02:52:00,
2013-01-02 21:57:00,17.9,11.6,30.20,SSW,208,10.4,10.4,76,0.00,CLR,,0.00,0.0,WeatherDisplay:10.37,2013-01-03 02:57:00,
2013-01-02 22:02:00,17.8,11.5,30.20,SSW,203,9.2,9.2,76,0.00,CLR,,0.00,0.0,WeatherDisplay:10.37,2013-01-03 03:02:00,
2013-01-02 22:07:00,17.6,11.3,30.21,SSW,194,9.2,9.2,76,0.00,CLR,,0.00,0.0,WeatherDisplay:10.37,2013-01-03 03:07:00,
2013-01-02 22:12:00,17.6,11.6,30.21,South,190,11.5,11.5,77,0.00,CLR,,0.00,0.0,WeatherDisplay:10.37,2013-01-03 03:12:00,
2013-01-02 22:17:00,17.6,11.6,30.20,SSE,166,9.2,9.2,77,0.00,CLR,,0.00,0.0,WeatherDisplay:10.37,2013-01-03 03:17:00,
2013-01-02 22:22:00,17.5,11.5,30.20,South,185,8.1,8.1,77,0.00,CLR,,0.00,0.0,WeatherDisplay:10.37,2013-01-03 03:22:00,
2013-01-02 22:27:00,17.4,11.4,30.20,South,189,9.2,9.2,77,0.00,CLR,,0.00,0.0,WeatherDisplay:10.37,2013-01-03 03:27:00,
2013-01-02 22:32:00,17.3,11.3,30.20,SW,215,10.4,10.4,77,0.00,CLR,,0.00,0.0,WeatherDisplay:10.37,2013-01-03 03:32:00,
2013-01-02 22:38:00,17.4,11.4,30.20,South,182,11.5,11.5,77,0.00,CLR,,0.00,0.0,WeatherDisplay:10.37,2013-01-03 03:38:00,
2013-01-02 22:44:00,17.4,11.4,30.20,South,181,11.5,11.5,77,0.00,CLR,,0.00,0.0,WeatherDisplay:10.37,2013-01-03 03:44:00,
2013-01-02 22:49:00,17.4,11.4,30.20,SW,222,10.4,10.4,77,0.00,CLR,,0.00,0.0,WeatherDisplay:10.37,2013-01-03 03:49:00,
2013-01-02 22:54:00,17.5,11.2,30.20,SSW,210,11.5,11.5,76,0.00,CLR,,0.00,0.0,WeatherDisplay:10.37,2013-01-03 03:54:00,
2013-01-02 22:59:00,17.5,11.2,30.19,SSW,202,11.5,11.5,76,0.00,CLR,,0.00,0.0,WeatherDisplay:10.37,2013-01-03 03:59:00,
2013-01-02 23:04:00,17.6,11.3,30.20,SSW,197,10.4,10.4,76,0.00,CLR,,0.00,0.0,WeatherDisplay:10.37,2013-01-03 04:04:00,
2013-01-02 23:09:00,17.7,11.4,30.20,SSW,213,10.4,10.4,76,0.00,CLR,,0.00,0.0,WeatherDisplay:10.37,2013-01-03 04:09:00,
2013-01-02 23:14:00,17.6,11.3,30.20,SSW,195,8.1,8.1,76,0.00,CLR,,0.00,0.0,WeatherDisplay:10.37,2013-01-03 04:14:00,
2013-01-02 23:19:00,17.6,11.3,30.20,SW,219,10.4,10.4,76,0.00,CLR,,0.00,0.0,WeatherDisplay:10.37,2013-01-03 04:19:00,
2013-01-02 23:24:00,17.6,11.3,30.20,South,188,11.5,11.5,76,0.00,CLR,,0.00,0.0,WeatherDisplay:10.37,2013-01-03 04:24:00,
2013-01-02 23:29:00,17.6,11.3,30.20,South,189,10.4,10.4,76,0.00,CLR,,0.00,0.0,WeatherDisplay:10.37,2013-01-03 04:29:00,
2013-01-02 23:34:00,17.7,11.4,30.20,SSW,207,5.8,5.8,76,0.00,CLR,,0.00,0.0,WeatherDisplay:10.37,2013-01-03 04:34:00,
2013-01-02 23:39:00,17.7,11.4,30.20,SW,218,6.9,6.9,76,0.00,CLR,,0.00,0.0,WeatherDisplay:10.37,2013-01-03 04:39:00,
2013-01-02 23:44:00,17.8,11.5,30.20,SSW,209,11.5,11.5,76,0.00,CLR,,0.00,0.0,WeatherDisplay:10.37,2013-01-03 04:44:00,
2013-01-02 23:49:00,17.9,11.3,30.20,South,190,10.4,10.4,75,0.00,CLR,,0.00,0.0,WeatherDisplay:10.37,2013-01-03 04:49:00,
2013-01-02 23:54:00,18.1,11.5,30.20,South,188,14.0,14.0,75,0.00,CLR,,0.00,0.0,WeatherDisplay:10.37,2013-01-03 04:54:00,
2013-01-02 23:59:00,18.2,11.6,30.19,South,188,13.8,13.8,75,0.00,CLR,,0.00,0.0,WeatherDisplay:10.37,2013-01-03 04:59:00,